Location: Suzhou
(31.3110°N, 120.6180°E)
Time: 13:09:15
(UTC+08:00)

FO-29 - Pass Details

Date: 27 April 2026
Orbit: 800 x 1320 km, 98.5° (Epoch: 15 May)

Event Time Altitude Azimuth Distance (km) Brightness Sun altitude
Rises 21:00:14 0° 360° (N) 4,019 13.3 -28.3°
Reaches altitude 10° 21:03:18 10° 350° (N) 2,973 12.6 -28.8°
Maximum altitude 21:08:50 28° 294° (WNW) 1,800 11.4 -29.7°
Drops below altitude 10° 21:13:50 10° 237° (WSW) 2,664 11.9 -30.4°
Sets 21:16:27 0° 226° (SW) 3,533 12.5 -30.9°
